Location: Newark
(38.0892°N, 27.7378°E)
Time: 22:45:10
(UTC+00:00)

N. Korean satellite - Pass Details

Date: 18 December 2019
Orbit: 454 x 507 km, 97.2° (Epoch: 21 January)

Event Time Altitude Azimuth Distance (km) Brightness Sun altitude
Rises 03:11:34 0° 29° (NNE) 2,501 10.4 -24.4°
Reaches altitude 10° 03:14:04 10° 48° (NE) 1,612 9.6 -23.9°
Maximum altitude 03:16:35 19° 94° (E) 1,161 9.3 -23.4°
Drops below altitude 10° 03:19:04 10° 141° (SE) 1,590 9.8 -22.9°
Sets 03:21:31 0° 161° (SSE) 2,454 10.6 -22.5°
